Torna al catalogo

FENGYUN 1C DEB

AttivoSSO
NORAD 30054·DEBRIS·🇨🇳 China

Lanciato May 10, 1999 da Taiyuan Satellite Launch Center

Loading…

Prossimi Passaggi (prossime 24 ore)

TLE

AggiornatoSource: Space-Track

Epoca: Sep 14, 2026, 00:35 UTC

1 30054U 99025PF  26257.02448969  .00000293  00000-0  29169-3 0  9995
2 30054  99.3430 286.9501 0276119   9.1801  19.6629 13.70140244981184

Traccia FENGYUN 1C DEB in tempo reale con AllMySat

Download on the App Store